Regional Weather Roundup
Issued by NWS

Home | Current Version | Previous Version | Text Only | Print | Product List | Glossary On
Versions: 1 2 3 4 5 6 7 8 9 10 11 12 13 14 15 16 17 18 19 20 21 22 23 24 25 26 27 28 29 30 31 32 33 34 35 36 37 38 39 40 41 42 43 44 45 46 47 48 49 50
797
ASUS43 KMKX 191111
RWRWI

WISCONSIN REGIONAL WEATHER ROUNDUP
NATIONAL WEATHER SERVICE MILWAUKEE/SULLIVAN WI
500 AM CST THU JAN 19 2017

NOTE: "FAIR" INDICATES FEW OR NO CLOUDS BELOW 12,000 FEET WITH NO
SIGNIFICANT WEATHER AND/OR OBSTRUCTIONS TO VISIBILITY.

WIZ001-002-006>008-014>016-023>028-191200-
NORTHWEST WISCONSIN

CITY           SKY/WX    TMP DP  RH WIND       PRES   REMARKS
SUPERIOR ARPT  CLOUDY    34  33  94 SW8       29.79S WCI  28
ASHLAND        CLOUDY    23  22  96 S5        29.83R FOG     WCI  17
HAYWARD        CLOUDY    33  30  88 S8        29.83R FOG     WCI  26
SIREN          CLOUDY    31  31  98 SE6       29.81R FOG     WCI  25
CUMBERLAND     CLOUDY    30  28  93 S8        29.83S FOG     WCI  23
RICE LAKE      FOG       30  29  99 SE7       29.86S VSB 1/4 WCI  23
CHETEK         NOT AVBL
LADYSMITH      FOG       32  32  99 S5        29.88S VSB 1/2 WCI  27
EAU CLAIRE     FOG       29  29 100 S5        29.86S VSB 1/4 WCI  24
MENOMONIE      FOG       24  24  97 MISG      29.86F VSB 1/4
NEW RICHMOND   CLEAR     32  31  98 S6        29.82F WCI  26
OSCEOLA        CLEAR     32  32 100 S7        29.84S WCI  26
$$

WIZ003>005-009-010-017-018-191200-
NORTH CENTRAL WISCONSIN

CITY           SKY/WX    TMP DP  RH WIND       PRES   REMARKS
MANITOWISH WTR FOG       31  31 100 S6        29.83  VSB 3/4 WCI  25
ARBOR VITAE    FOG       32  31  96 S6        29.85R VSB 3/4 WCI  26
WOODRUFF       FOG       32  31  96 S6        29.85R VSB 3/4 WCI  26
RHINELANDER    FOG       31  31 100 SW9       29.87R VSB 1/2 WCI  23
EAGLE RIVER    FOG       31  31 100 SW3       29.85R VSB 1/4
LAND O LAKES   FOG       32  32 100 SW5       29.85S VSB 3/4 WCI  27
PHILLIPS       FOG       30  30 100 S10       29.85S VSB 1   WCI  21
TOMAHAWK       CLOUDY    30  29  96 CALM      29.88S FOG
MEDFORD        FOG       31  31  99 S6        29.88S VSB 1/4 WCI  25
MERRILL        FOG       31  31 100 SW3         N/A  VSB 3/4
$$

WIZ029-030-035-036-043>047-191200-
CENTRAL WISCONSIN

CITY           SKY/WX    TMP DP  RH WIND       PRES   REMARKS
WAUSAU         FOG       30  30 100 SW7       29.89F VSB 1/4 WCI  23
MOSINEE        SNOW      32  32 100 S8        29.91F VSB 1/4 WCI  25
MARSHFIELD     FOG       32  31  96 S7        29.89S VSB 1/4 WCI  26
STEVENS POINT  FOG       31  31 100 S3        29.93S VSB 1/2
WAUPACA        CLOUDY    35  33  92 CALM      29.95S FOG
WAUTOMA        CLOUDY    34  33  96 SW6       29.95F FOG     WCI  29
WISC RAPIDS    FOG       33  33 100 SW5       29.92F VSB 1   WCI  29
CAMP DOUGLAS   CLOUDY    33  32  95 S3        29.92S
$$

WIZ011>013-019>022-031-037>040-048>050-191200-
NORTHEAST WISCONSIN

CITY           SKY/WX    TMP DP  RH WIND       PRES   REMARKS
ANTIGO         FOG       29  29 100 SW7       29.90S VSB 1/2 WCI  22
SHAWANO        CLOUDY    33  32  94 SW5       29.94S FOG     WCI  29
OCONTO         NOT AVBL
STURGEON BAY   CLOUDY    32  31  96 SW14      29.95R FOG     WCI  22
GREEN BAY      CLOUDY    34  34 100 SW9       29.95S FOG     WCI  27
MANITOWOC      CLOUDY    34  31  88 SW7       29.97R FOG     WCI  28
APPLETON       NOT AVBL
CLINTONVILLE   CLOUDY    32  32 100 SW8       29.94S FOG     WCI  25
OSHKOSH        CLOUDY    33  32  96 SW7       29.95F FOG     WCI  27
$$

WIZ032>034-041-042-053>061-191200-
SOUTHWEST WISCONSIN

CITY           SKY/WX    TMP DP  RH WIND       PRES   REMARKS
LA CROSSE      PTCLDY    35  32  88 SE8       29.92S WCI  29
SPARTA         FOG       28  28 100 CALM      29.93S VSB 1/2
VIROQUA        CLOUDY    33  33 100 S8        29.92F WCI  26
BOSCOBEL       CLEAR     31  29  92 NE3       29.95F FOG
PRAIRIE DU CHI CLOUDY    33  31  94 CALM      29.95S FOG
PLATTEVILLE    CLOUDY    32  32 100 S8        29.96F VSB 1/4 WCI  25
$$

WIZ056-057-062-063-064-067-068-191200-
SOUTH CENTRAL WISCONSIN

CITY           SKY/WX    TMP DP  RH WIND       PRES   REMARKS
REEDSBURG      CLOUDY    33  33 100 SW10      29.95R FOG     WCI  24
BARABOO/DELLS    N/A     31  31  99 S5        29.94S FOG     WCI  26
LONE ROCK      CLOUDY    33  31  92 E5        29.96F FOG     WCI  29
MINERAL POINT  FOG       34  34 100 S8        29.94F VSB 1/4 WCI  27
MADISON        CLOUDY    33  32  96 SW5       29.98R FOG     WCI  29
MIDDLETON      CLOUDY    35  35 100 SW3       29.97F
WATERTOWN      CLOUDY    33  33 100 SW5       29.97F FOG     WCI  28
MONROE         MOCLDY    32  32 100 SW9       29.95F FOG     WCI  24
JANESVILLE     CLOUDY    32  32 100 CALM      29.97F FOG
$$

WIZ051-052-058>065-066-070>072-191200-
SOUTHEAST WISCONSIN

CITY           SKY/WX    TMP DP  RH WIND       PRES   REMARKS
MILWAUKEE      FOG       34  32  92 SW9       29.98F VSB 1   WCI  27
WAUKESHA       PTCLDY    32  32 100 SW3       29.99S FOG
MILWAUKEE/TIMM MOCLDY    34  32  93 W10       29.98F FOG     WCI  26
RACINE         CLOUDY    33  32  96 SW7       30.01S FOG     WCI  27
KENOSHA        FOG       33  32  96 W8        29.99F VSB 1/4 WCI  26
FOND DU LAC    CLOUDY    33  31  92 SW9       29.96F FOG     WCI  25
SHEBOYGAN      CLOUDY    33  32  96 SW6       29.96S FOG     WCI  28
WEST BEND      CLOUDY    32  32 100 SW7       29.97S FOG     WCI  26
JUNEAU         FOG       32  32 100 S9        29.98F VSB 1/4 WCI  24
$$

LSZ147-162-191200-
LAKE SUPERIOR

STATION/POSITION TIME  TEMP    WIND        PRES    WAVE
                       AIR SEA DIR/SP/G            HT/PER
                 (UTC) (F)     (DEG/KT/KT) (MB)    (FT/S)
DEVILS ISLAND    1100   33     160/  7/  9 1010.5R
PORT WING        1030   25      CALM  /  1 1009.5S
SAXON HARBOR     0940   34     180/  3/  7 1009.8S
$$

LMZ867-665-643>646-191200-
LAKE MICHIGAN

STATION/POSITION TIME  TEMP    WIND        PRES    WAVE
                       AIR SEA DIR/SP/G            HT/PER
                 (UTC) (F)     (DEG/KT/KT) (MB)    (FT/S)
NORTHPORT PIER   1100   31     210/  4/ 13 1013.5
SISTER BAY       1050   31     250/ 13/ 16   N/A
ALGOMA LAKESHORE 0854          230/  5/  6   N/A
KEWAUNEE LAKESHO 1048   33     250/  5/ 10 1013.9F
SHEBOYGAN LAKESH 1100   34     240/  5/  8 1015.1F
PORT WASHINGTON  1040   35     260/  5/ 10 1015.6F
MILWAUKEE LAKESH 1050   35     210/  6/  7   N/A
KENOSHA   LAKESH 1100   34     250/  3/  4 1016.3
$$

TC  - TEMPERATURE IN CELSIUS
VSB - VISIBILITY IN STATUTE MILES
WCI - WIND CHILL INDEX
HX  - HEAT INDEX





USA.gov is the U.S. government's official web portal to all federal, state and local government web resources and services.